Temperature
14 14 14 15 18 20 20 21 20 20 20 19 19 20 21 21 21 20 15 15 15 15 15 16 16 16 16 16 16 17 17 17 17 17 17 16 16 16 16 16 16 16 16 15 15 15 15 15 15
13 14 14 16 19 20 20 20 19 20 19 17 18 18 19 19 16 15 14 15 15 15 15 15 16 16 16 16 16 16 16 16 16 16 16 16 16 16 16 16 16 16 15 15 15 15 15 15 15
13 13 15 17 18 20 20 20 19 18 17 17 17 17 18 17 15 14 14 14 14 15 15 15 16 16 16 16 16 16 16 16 16 16 16 16 16 16 16 16 16 15 15 15 15 15 15 14 14
13 13 15 17 18 19 19 19 18 18 17 16 17 17 16 14 13 13 14 14 14 14 15 15 15 15 15 15 16 16 16 16 16 16 16 16 16 16 16 16 15 15 15 15 15 15 14 14 14
12 14 16 16 17 18 18 17 17 18 18 16 17 17 15 13 13 14 14 14 14 14 14 15 15 15 15 15 15 16 16 16 16 16 16 16 16 16 15 15 15 15 15 15 15 15 14 14 14
13 15 16 17 17 17 17 16 16 17 17 16 16 16 14 13 13 13 13 13 14 14 14 14 15 15 15 15 15 15 15 16 16 16 16 16 16 15 15 15 15 15 15 15 15 14 14 14 14
13 15 16 16 17 17 16 15 16 17 17 16 15 16 14 12 12 13 13 13 13 14 14 14 14 14 15 15 15 15 15 15 15 15 15 15 15 15 15 15 15 15 15 15 15 14 14 14 14
12 14 15 16 16 16 15 15 15 15 16 14 14 16 14 12 12 12 12 13 13 13 14 14 14 14 14 14 14 15 15 15 15 15 15 15 15 15 15 15 15 15 15 15 14 14 14 14 14
11 13 14 15 15 15 15 14 13 13 13 12 12 13 12 11 11 12 12 12 13 13 13 13 14 14 14 14 14 14 14 15 15 15 15 15 15 15 15 15 15 14 14 14 14 14 14 14 13
11 13 14 14 15 15 14 14 13 13 14 13 12 11 11 11 11 11 12 12 12 13 13 13 13 14 14 14 14 14 14 14 14 14 14 14 14 14 14 14 14 14 14 14 14 14 13 13 13
11 12 13 13 13 13 13 13 12 14 14 14 12 11 10 11 11 11 11 11 12 12 12 13 13 13 13 14 13 14 14 14 14 14 14 14 14 14 14 14 14 14 13 13 13 13 13 13 13
11 11 11 12 11 12 12 12 12 12 12 12 11 11 10 10 10 10 11 11 11 12 12 12 12 13 13 13 13 13 13 13 13 14 14 14 14 14 13 13 13 13 13 13 13 13 13 12 12
10 10 10 10 10 11 11 11 12 11 10 11 11 10 10 10 10 10 10 10 11 11 12 12 12 12 13 13 13 13 13 13 13 13 13 13 13 13 13 13 13 13 13 13 13 12 12 12 12
10 10 10 10 10 10 11 11 11 10 10 10 10 10 10 9 9 10 10 10 10 11 11 11 12 12 12 12 12 12 12 13 13 13 13 13 13 13 13 13 13 13 12 12 12 12 12 12 12
9 10 11 11 10 10 11 11 11 10 10 10 10 10 9 9 9 9 9 10 10 10 11 11 11 11 11 12 12 12 12 12 12 12 12 12 12 12 12 12 12 12 12 12 12 12 12 11 11
10 10 11 11 10 10 11 11 11 10 9 10 10 9 9 9 9 9 9 9 10 10 10 10 11 11 11 11 11 11 11 12 12 12 12 12 12 12 12 12 12 12 12 12 11 11 11 11 11
10 10 10 11 11 11 11 11 10 9 9 10 9 9 9 8 8 8 9 9 9 10 10 10 10 10 11 11 11 11 11 11 11 11 11 11 11 12 11 12 12 11 11 11 11 11 11 11 11
9 10 10 10 11 10 10 10 10 9 9 9 9 9 8 8 8 8 8 9 9 9 9 9 10 10 10 10 10 10 10 10 10 11 11 11 11 11 11 11 11 11 11 11 11 11 11 11 11
9 9 10 10 10 10 10 10 10 9 8 9 9 8 8 7 7 7 8 8 8 8 9 9 9 9 10 10 10 10 10 10 10 10 10 10 10 11 11 11 11 11 11 11 10 10 10 10 10
9 9 9 9 9 9 9 9 9 9 8 8 8 8 7 7 7 7 7 8 8 8 8 9 9 9 9 9 9 10 10 10 10 9 10 10 10 10 10 10 10 10 10 10 10 10 10 10 10
9 9 9 9 9 9 9 9 9 9 8 8 7 7 7 7 6 6 7 7 8 8 8 8 8 9 9 9 9 9 9 9 9 9 9 9 9 10 10 10 10 10 10 10 9 9 9 9 9
8 8 8 8 9 9 9 10 10 10 9 8 7 7 6 6 6 6 6 7 7 8 8 8 8 8 8 8 8 8 9 9 9 9 9 9 9 9 9 9 9 9 9 9 9 9 9 9 8
8 8 8 8 9 9 9 9 11 10 9 9 8 7 6 6 6 6 6 6 7 7 7 7 8 8 8 8 8 8 8 8 8 8 8 8 8 8 9 9 9 9 9 9 9 8 8 8 8
7 8 8 8 9 8 9 9 10 9 9 9 8 7 6 6 6 6 6 6 6 6 7 7 7 7 7 7 7 7 7 7 8 8 8 8 8 8 8 8 8 8 8 8 8 8 8 8 7
8 8 9 9 9 9 8 9 9 9 8 8 8 7 6 5 5 5 6 6 6 6 7 6 6 7 7 7 7 7 7 7 7 7 7 7 7 8 8 8 8 8 8 8 8 8 8 7 7
7 8 8 9 9 10 8 8 9 7 7 6 6 6 5 5 5 5 5 6 6 6 6 6 6 6 6 6 6 7 7 7 7 7 7 7 7 7 7 7 7 7 7 7 7 7 7 7 7
7 7 7 7 7 8 9 8 8 7 7 6 6 5 4 4 4 4 5 5 6 6 6 6 6 6 6 6 6 6 6 6 6 6 6 6 6 6 7 7 7 6 6 7 7 7 7 6 6
6 6 7 7 8 9 9 8 8 7 6 6 5 5 4 3 3 3 4 5 5 5 5 5 5 5 5 5 6 6 6 6 6 6 6 6 6 6 6 6 6 6 6 6 6 6 6 6 6
5 5 6 7 7 9 9 9 7 6 6 5 5 4 3 3 3 3 3 4 5 5 5 5 5 5 5 5 5 5 5 5 6 6 6 6 6 6 6 6 6 6 6 6 6 6 6 6 6
5 5 6 7 6 7 8 8 6 5 5 4 4 3 2 2 2 3 3 4 4 4 4 4 4 4 4 4 4 5 5 5 5 5 5 5 5 5 5 5 5 5 5 5 5 5 5 5 5
Wind_Speed
5 3 2 3 5 6 12 9 6 6 4 2 1 3 4 3 2 1 3 3 3 4 6 8 8 8 10 10 11 12 12 12 12 12 12 12 11 11 11 10 10 10 10 10 10 10 10 10 11
4 2 3 4 7 11 12 10 8 6 3 2 2 2 3 2 1 3 2 2 4 5 6 7 8 8 10 10 11 12 12 12 12 12 12 11 11 11 10 10 9 9 9 9 9 10 10 10 10
3 3 3 4 9 14 11 7 8 4 3 3 3 2 2 1 2 2 2 3 4 5 5 7 8 8 9 10 10 11 11 11 11 11 11 11 10 10 10 10 9 9 9 9 9 9 10 9 9
2 3 3 7 14 14 9 4 4 5 3 2 3 2 1 2 1 2 2 3 5 5 5 7 8 8 8 10 10 11 11 11 11 11 11 10 10 10 10 10 9 9 9 9 9 9 9 9 9
2 3 7 10 15 12 7 4 4 5 4 3 4 3 1 1 2 3 3 4 5 4 5 7 9 9 9 9 10 10 10 11 11 11 11 10 10 10 10 9 9 9 9 8 9 9 9 8 8
3 4 8 13 15 11 8 6 5 5 4 3 3 3 1 2 3 3 3 4 5 5 5 7 8 9 9 9 9 9 9 10 11 11 11 10 10 10 10 9 9 8 8 8 8 8 8 8 8
3 5 10 13 13 11 8 6 7 5 5 4 3 4 3 2 2 2 3 4 5 5 5 6 7 8 8 9 9 9 9 9 10 10 10 10 10 10 9 9 8 8 8 7 8 8 7 7 7
2 4 9 12 12 11 7 5 5 6 5 2 3 4 3 2 2 3 4 5 5 5 5 5 6 6 6 7 8 8 8 9 9 9 10 10 9 9 9 8 8 7 7 7 7 7 7 7 7
2 5 10 11 11 9 6 5 4 2 3 2 2 3 1 5 5 5 5 4 4 4 4 4 4 5 5 6 7 7 8 8 8 8 8 8 7 7 7 7 7 7 7 7 7 7 7 7 7
3 7 10 8 7 7 6 5 4 4 5 3 2 0 4 6 6 6 5 4 4 3 3 3 3 4 4 4 5 5 5 5 5 5 6 5 5 5 6 8 7 7 7 7 6 6 6 4 4
3 6 7 6 5 5 5 4 4 6 6 5 5 5 5 6 6 6 5 4 3 3 3 3 3 3 3 3 3 3 3 3 4 4 4 4 4 4 4 5 5 5 5 4 5 5 4 3 3
4 5 6 5 4 5 5 4 4 4 4 2 3 5 7 7 6 5 4 3 3 3 3 2 2 2 3 3 2 3 3 3 3 3 3 3 3 3 2 2 3 3 3 3 3 2 3 3 3
5 5 4 3 3 3 3 4 4 3 3 1 3 6 7 6 5 4 3 3 2 3 2 2 2 2 3 3 2 2 3 3 3 3 2 2 2 2 2 2 2 2 2 2 2 2 3 2 2
3 3 4 4 3 3 3 4 4 4 2 3 4 5 6 5 4 3 3 3 2 2 2 2 2 2 3 3 2 2 2 3 3 3 3 3 2 2 2 2 2 2 2 2 2 2 2 2 2
3 3 3 3 3 3 2 5 6 4 3 4 4 4 4 4 4 3 2 2 1 1 1 2 1 2 2 2 2 2 2 2 3 3 3 3 3 2 2 2 2 1 2 2 2 2 2 2 2
3 4 4 3 3 3 5 7 4 4 5 4 4 4 4 3 3 2 2 2 1 1 1 1 1 2 2 2 3 2 2 3 3 3 3 3 3 3 2 1 1 1 2 2 2 2 2 2 1
3 3 4 4 3 3 5 5 3 4 5 4 4 4 4 3 2 2 2 2 1 1 2 1 2 2 2 3 3 3 3 3 3 3 3 2 3 3 2 1 1 1 1 1 2 2 1 1 1
3 3 5 4 2 3 6 5 3 3 4 4 4 4 4 3 3 2 2 2 1 1 2 2 2 2 3 3 3 3 3 3 3 3 3 3 2 2 2 2 2 1 1 1 2 2 1 1 1
3 3 4 5 2 2 4 6 5 3 4 4 4 3 3 3 2 2 2 2 2 2 2 3 3 2 2 2 2 1 1 2 2 2 2 2 2 2 2 2 2 2 1 1 2 2 2 1 1
3 2 3 3 1 1 2 4 4 4 4 4 4 3 3 2 1 1 1 1 1 1 1 2 2 2 2 1 1 1 1 1 1 1 2 2 2 2 2 2 2 2 1 1 1 1 2 1 1
2 2 3 3 2 1 0 2 3 3 2 2 3 3 3 3 3 2 1 1 1 1 1 1 1 2 1 1 2 2 2 1 1 1 1 1 1 2 1 1 2 2 2 2 2 2 2 2 2
2 2 3 3 2 1 1 2 3 3 2 2 3 3 3 3 3 2 2 2 2 1 1 1 1 1 1 2 2 2 1 1 1 1 1 1 1 2 1 1 2 2 1 1 1 1 1 2 2
2 3 2 2 2 1 2 3 2 3 3 4 4 4 4 4 3 2 2 2 1 1 1 1 1 1 1 1 1 1 1 0 1 1 2 1 1 1 2 1 1 1 1 1 1 1 1 1 2
1 1 0 1 1 2 2 3 2 2 4 4 3 3 3 3 3 2 2 1 1 1 1 1 1 1 1 1 1 1 1 1 1 1 1 1 0 0 1 0 0 0 0 1 1 1 2 2 2
1 1 0 0 1 2 1 2 2 1 2 3 3 3 3 2 3 3 2 1 1 1 1 1 1 1 1 1 1 1 1 1 1 1 1 1 0 0 1 1 0 1 1 1 1 1 2 3 3
1 1 1 1 2 2 1 3 1 2 2 2 2 2 1 1 1 2 2 2 2 2 2 2 2 1 1 1 1 1 1 1 1 1 1 1 1 1 1 1 0 1 1 1 1 1 1 2 3
0 1 2 1 1 2 3 2 2 2 3 3 2 1 1 1 1 1 1 2 2 2 2 2 2 2 1 1 1 1 1 1 1 1 1 1 1 1 1 1 1 1 1 1 2 1 2 2 3
2 0 1 1 2 2 3 3 2 3 4 4 4 3 2 2 2 2 1 1 1 2 2 2 2 2 2 1 1 1 1 1 1 1 1 1 1 1 1 1 1 1 1 1 2 2 2 2 2
1 1 1 1 2 2 3 2 1 2 4 4 4 4 3 3 2 2 2 2 1 1 1 2 2 2 1 2 1 1 1 1 2 2 2 1 1 1 2 2 2 2 2 2 2 2 2 2 2
2 2 2 2 2 2 2 2 1 2 3 4 5 4 4 3 3 2 2 1 1 1 1 1 1 1 2 2 2 2 2 2 2 2 2 2 2 2 1 1 2 2 2 2 3 2 2 3 3
Wind_Direction
292 285 249 221 207 213 225 215 214 202 204 217 209 209 209 204 218 90 54 105 111 136 146 149 141 142 139 137 139 137 133 132 131 130 128 125 122 117 113 109 106 103 101 100 98 95 93 91 89
283 247 210 214 215 215 221 214 209 206 194 172 191 205 199 184 34 67 76 98 120 126 138 144 136 137 137 134 138 139 137 136 133 133 130 128 125 120 116 112 109 106 104 102 100 98 96 94 91
255 231 206 203 218 222 216 205 211 197 170 188 181 211 215 149 104 78 60 120 118 117 127 128 128 128 134 135 134 137 139 138 135 132 131 129 126 122 119 115 111 108 105 104 100 100 99 98 94
213 191 204 214 217 224 226 198 201 182 186 210 191 161 136 71 60 60 107 126 120 114 116 122 120 120 126 133 132 134 135 134 135 134 131 131 128 124 120 116 112 110 106 104 101 100 100 99 96
211 198 199 215 224 224 226 222 195 202 196 200 207 202 186 104 68 86 111 118 116 107 107 120 116 112 114 121 128 129 132 135 134 133 131 130 130 127 123 118 114 112 109 105 102 99 100 101 100
190 205 207 217 219 220 219 232 220 219 209 205 211 213 203 115 92 101 117 117 108 106 108 116 113 112 111 109 112 124 127 131 134 132 128 129 132 130 125 121 117 115 111 108 107 105 103 103 101
200 203 216 220 219 219 223 229 226 225 222 215 219 208 178 147 94 128 136 121 109 103 106 109 114 116 112 106 104 105 117 121 126 130 128 127 129 131 129 125 121 119 116 113 112 110 107 106 106
226 209 218 221 221 222 216 228 239 238 231 233 236 215 207 189 145 136 127 118 109 100 96 106 109 114 122 117 105 101 105 114 118 121 121 122 127 132 131 129 124 123 121 120 119 116 113 111 112
231 214 220 219 221 221 212 222 235 256 210 235 267 284 188 147 150 138 126 115 105 99 91 92 108 109 113 119 114 108 106 104 116 120 122 130 138 140 139 127 125 126 125 125 124 122 119 119 117
208 222 226 230 230 221 213 224 218 208 217 230 227 92 136 153 159 155 148 141 126 114 101 90 104 107 103 106 117 117 114 118 117 126 137 144 140 135 137 129 122 125 125 126 124 126 132 142 130
209 226 231 234 236 225 218 220 228 216 233 238 218 180 164 165 168 168 164 157 145 137 120 98 96 111 105 100 106 100 99 103 112 121 132 145 140 133 136 142 136 136 138 134 134 140 132 130 123
214 245 248 239 236 235 229 219 226 238 258 264 206 171 166 171 172 169 161 149 150 144 130 108 95 104 106 102 99 109 105 100 110 123 138 136 129 129 130 128 140 148 149 140 146 141 132 130 127
230 245 265 249 233 227 227 221 231 251 258 231 164 165 172 176 173 161 148 140 138 144 131 110 100 107 108 104 94 106 114 113 111 129 137 138 143 143 140 135 135 152 151 148 148 148 138 137 131
222 238 256 258 245 246 228 241 233 246 224 174 166 172 173 170 163 146 137 133 134 137 146 131 130 111 112 108 102 99 103 107 104 95 111 132 138 152 153 145 145 137 149 156 162 153 150 143 137
216 236 251 254 262 241 232 246 235 223 201 184 182 179 170 162 156 155 153 151 128 117 152 157 152 112 106 105 103 85 90 96 99 99 104 111 112 125 151 147 143 138 142 153 158 152 149 135 138
216 225 243 258 253 239 221 235 223 210 202 197 195 185 177 167 168 158 139 124 108 92 87 141 105 109 95 87 94 90 96 94 89 98 98 104 106 104 107 133 138 146 150 153 157 158 154 143 151
208 227 241 262 243 228 219 239 229 213 209 205 198 187 181 169 175 157 129 114 106 99 90 90 101 108 95 86 86 88 92 89 86 85 81 86 106 113 118 103 113 150 152 149 159 166 161 155 149
243 241 252 259 262 227 227 233 237 210 203 202 197 189 180 177 183 163 131 120 105 85 91 86 92 87 87 84 78 79 83 81 76 71 63 60 87 116 124 122 106 115 153 154 160 157 141 142 147
259 251 269 278 290 245 230 238 238 207 202 210 204 194 189 189 172 145 129 117 115 92 87 85 89 84 80 86 89 90 87 86 72 58 52 56 69 98 102 96 113 113 135 160 160 151 150 124 132
242 241 300 305 331 265 245 260 245 215 214 222 215 213 211 203 188 163 126 115 138 134 100 85 89 93 81 76 94 100 106 113 92 67 58 39 48 85 98 112 121 127 136 146 160 161 179 146 157
255 241 286 292 326 133 237 261 207 207 198 203 221 225 225 221 215 205 197 182 176 157 92 94 117 97 89 91 85 84 77 93 105 80 53 31 44 60 84 116 114 122 140 151 175 191 201 190 175
296 302 283 264 222 224 238 233 207 206 213 238 235 232 234 230 224 210 204 206 201 186 125 125 103 101 98 101 114 124 134 149 169 165 129 78 75 58 52 81 107 123 130 149 172 187 209 213 210
292 310 278 234 188 227 222 217 227 193 245 255 241 228 231 229 222 216 214 213 195 162 105 97 113 103 101 121 136 147 147 104 90 129 134 119 96 64 32 81 113 136 141 140 151 187 192 215 229
286 306 168 159 180 218 247 225 232 227 258 265 245 238 236 232 227 225 224 188 152 116 84 91 137 122 158 173 160 169 174 144 116 120 144 130 106 89 22 9 1 175 119 164 184 210 211 213 227
10 63 48 169 211 233 183 236 247 282 268 263 253 239 242 229 219 217 214 194 171 167 155 180 178 168 182 182 187 203 204 195 195 205 199 182 216 277 321 312 318 318 293 237 217 218 229 224 228
257 258 269 264 237 273 215 227 254 8 336 312 284 253 245 259 237 226 223 214 200 191 187 197 194 194 195 195 202 206 206 213 223 238 229 219 230 245 276 273 253 292 302 279 246 221 231 241 237
34 44 320 275 251 234 226 236 288 0 6 359 345 346 332 323 326 273 246 238 216 203 199 202 201 205 210 214 211 217 217 224 232 246 259 245 243 264 230 239 217 226 261 272 261 249 240 248 246
356 78 204 203 216 236 231 246 269 322 342 358 355 340 330 331 334 325 312 305 279 230 209 205 208 208 214 224 227 234 242 247 248 237 259 269 253 242 236 258 239 224 223 243 255 261 259 256 262
88 93 269 224 291 258 239 253 8 316 332 336 338 338 325 319 319 318 320 323 330 322 220 202 213 215 222 233 244 248 251 257 248 244 251 262 258 233 236 237 230 224 226 234 242 256 255 261 269
262 258 239 240 240 259 266 273 40 334 333 333 331 331 325 319 319 319 321 339 353 359 346 247 225 222 242 241 241 252 257 255 251 252 256 265 254 234 231 247 235 229 233 237 240 251 262 262 262
Height
1517 1518 1520 1522 1521 1516 1511 1509 1510 1512 1514 1517 1517 1517 1515 1516 1518 1523 1524 1522 1523 1524 1525 1527 1528 1530 1531 1533 1534 1535 1536 1537 1537 1538 1538 1539 1539 1539 1539 1540 1540 1540 1540 1540 1539 1539 1539 1539 1538
1516 1518 1521 1521 1515 1511 1508 1507 1511 1512 1516 1518 1518 1518 1517 1519 1521 1522 1521 1522 1523 1524 1526 1527 1528 1530 1531 1533 1534 1535 1536 1537 1537 1538 1539 1539 1540 1540 1540 1540 1540 1540 1540 1540 1540 1540 1539 1539 1539
1516 1518 1521 1516 1511 1504 1503 1508 1510 1515 1517 1518 1518 1519 1519 1520 1521 1521 1521 1522 1523 1525 1526 1527 1528 1530 1531 1532 1534 1535 1536 1537 1537 1538 1539 1539 1540 1540 1540 1540 1540 1540 1540 1540 1540 1540 1539 1539 1539
1516 1519 1519 1514 1507 1504 1505 1510 1513 1514 1517 1518 1518 1519 1520 1521 1521 1521 1521 1522 1524 1525 1526 1527 1528 1529 1531 1532 1533 1534 1536 1536 1537 1538 1539 1539 1539 1540 1540 1540 1540 1540 1540 1540 1540 1540 1540 1539 1539
1515 1516 1514 1510 1505 1506 1509 1512 1515 1514 1515 1517 1518 1517 1520 1521 1520 1520 1521 1522 1524 1525 1526 1527 1528 1529 1530 1532 1533 1534 1535 1536 1537 1538 1538 1539 1539 1540 1540 1540 1540 1540 1540 1540 1540 1540 1540 1540 1539
1515 1512 1508 1505 1504 1507 1511 1515 1515 1514 1515 1517 1518 1518 1519 1520 1520 1520 1521 1523 1524 1525 1526 1527 1528 1529 1530 1531 1532 1534 1535 1536 1537 1538 1538 1539 1539 1539 1540 1540 1540 1540 1540 1540 1540 1540 1540 1539 1539
1513 1509 1504 1503 1504 1507 1512 1515 1515 1514 1514 1516 1518 1517 1519 1520 1520 1520 1522 1523 1524 1525 1526 1527 1528 1529 1530 1531 1532 1533 1534 1535 1536 1537 1538 1538 1539 1539 1540 1540 1540 1540 1540 1540 1540 1540 1539 1539 1539
1511 1510 1505 1504 1504 1506 1513 1515 1515 1515 1515 1517 1518 1517 1518 1519 1519 1520 1521 1523 1524 1525 1525 1526 1527 1528 1530 1530 1531 1532 1533 1535 1536 1536 1537 1538 1538 1539 1539 1539 1539 1539 1540 1540 1540 1540 1539 1539 1539
1511 1510 1504 1504 1505 1507 1512 1513 1515 1515 1515 1516 1517 1517 1517 1518 1519 1520 1521 1522 1523 1524 1525 1525 1527 1528 1529 1530 1530 1531 1532 1534 1535 1536 1536 1537 1537 1538 1538 1539 1539 1539 1539 1539 1539 1539 1539 1539 1539
1510 1506 1504 1506 1507 1508 1511 1512 1513 1514 1514 1515 1516 1516 1516 1517 1519 1519 1520 1520 1521 1522 1523 1524 1525 1526 1528 1529 1530 1531 1532 1532 1533 1534 1535 1536 1536 1537 1537 1538 1538 1539 1539 1539 1539 1539 1539 1539 1539
1509 1507 1507 1509 1509 1510 1511 1512 1513 1512 1511 1513 1514 1515 1516 1517 1518 1519 1520 1520 1521 1522 1522 1523 1524 1525 1526 1527 1528 1529 1530 1531 1532 1533 1534 1535 1536 1536 1537 1537 1538 1538 1538 1539 1538 1539 1538 1538 1538
1510 1510 1509 1509 1510 1511 1510 1511 1512 1512 1512 1513 1513 1514 1515 1516 1517 1518 1519 1520 1521 1521 1522 1523 1523 1524 1525 1526 1527 1528 1529 1530 1531 1532 1532 1533 1534 1535 1536 1536 1537 1537 1537 1537 1538 1538 1537 1538 1537
1509 1510 1510 1510 1510 1510 1510 1510 1511 1512 1512 1512 1513 1514 1515 1516 1517 1518 1519 1519 1520 1520 1521 1522 1523 1523 1524 1525 1526 1527 1528 1529 1530 1531 1531 1531 1532 1533 1534 1535 1535 1536 1536 1536 1537 1537 1537 1537 1536
1509 1509 1510 1510 1509 1510 1509 1510 1511 1511 1511 1511 1512 1513 1514 1515 1516 1517 1517 1518 1518 1519 1520 1521 1522 1523 1523 1524 1525 1526 1527 1528 1528 1529 1530 1530 1531 1532 1533 1534 1534 1534 1535 1535 1535 1536 1536 1536 1536
1509 1509 1508 1508 1508 1509 1508 1508 1509 1510 1511 1510 1512 1512 1513 1514 1515 1515 1516 1516 1517 1518 1519 1520 1521 1522 1522 1523 1524 1524 1525 1526 1527 1528 1528 1529 1529 1530 1531 1532 1533 1533 1533 1534 1534 1535 1535 1535 1534
1508 1506 1504 1506 1507 1507 1509 1505 1508 1509 1510 1509 1510 1511 1512 1513 1514 1514 1515 1515 1516 1517 1518 1519 1520 1520 1521 1522 1522 1523 1524 1525 1526 1526 1527 1528 1528 1529 1530 1531 1531 1532 1532 1533 1533 1533 1533 1533 1533
1504 1503 1503 1504 1505 1505 1505 1504 1507 1509 1509 1509 1509 1510 1511 1511 1513 1513 1514 1514 1515 1516 1516 1517 1518 1519 1520 1521 1521 1522 1523 1523 1524 1525 1526 1526 1527 1528 1528 1529 1530 1530 1531 1531 1531 1532 1532 1532 1531
1505 1503 1502 1502 1503 1504 1503 1504 1506 1507 1508 1508 1509 1510 1510 1510 1511 1512 1513 1513 1514 1514 1515 1516 1517 1518 1519 1519 1520 1521 1521 1522 1523 1523 1524 1525 1525 1526 1527 1527 1528 1529 1529 1529 1530 1530 1530 1530 1530
1506 1505 1503 1501 1503 1504 1502 1503 1504 1506 1507 1507 1508 1509 1510 1510 1511 1511 1511 1512 1513 1514 1514 1514 1515 1517 1517 1518 1518 1519 1520 1521 1521 1522 1522 1523 1524 1524 1525 1525 1525 1526 1527 1527 1528 1528 1529 1529 1529
1507 1505 1504 1503 1504 1504 1503 1503 1503 1505 1506 1507 1508 1508 1509 1510 1510 1510 1510 1511 1512 1513 1513 1514 1514 1515 1516 1517 1517 1518 1518 1519 1520 1521 1521 1521 1522 1522 1522 1523 1523 1524 1525 1524 1525 1526 1526 1527 1527
1505 1505 1504 1505 1505 1504 1504 1501 1502 1505 1506 1507 1508 1508 1508 1509 1509 1509 1509 1509 1510 1511 1511 1512 1513 1514 1515 1516 1516 1517 1517 1518 1519 1519 1519 1520 1520 1520 1520 1521 1521 1522 1523 1522 1523 1524 1524 1525 1525
1506 1507 1507 1505 1502 1502 1504 1500 1497 1501 1504 1505 1506 1507 1507 1508 1508 1508 1508 1509 1509 1509 1510 1511 1512 1513 1514 1514 1515 1515 1515 1516 1517 1518 1518 1519 1519 1518 1519 1519 1519 1520 1520 1521 1521 1521 1522 1523 1523
1509 1509 1507 1505 1503 1505 1503 1502 1495 1500 1501 1503 1504 1505 1506 1506 1506 1507 1507 1508 1508 1508 1509 1510 1511 1512 1512 1513 1513 1513 1514 1515 1515 1516 1517 1517 1517 1517 1517 1517 1517 1518 1518 1518 1518 1519 1519 1520 1521
1511 1508 1506 1505 1503 1505 1503 1500 1496 1499 1501 1501 1503 1504 1505 1505 1505 1506 1506 1507 1507 1507 1508 1509 1510 1510 1511 1511 1511 1512 1512 1513 1513 1514 1515 1515 1515 1515 1515 1515 1515 1516 1516 1516 1516 1517 1517 1517 1518
1511 1507 1503 1501 1501 1499 1505 1502 1500 1500 1502 1502 1502 1503 1503 1504 1504 1505 1505 1505 1505 1506 1507 1508 1509 1509 1509 1509 1510 1510 1511 1511 1512 1512 1512 1513 1513 1513 1513 1513 1513 1514 1514 1514 1514 1514 1515 1515 1515
1512 1510 1508 1503 1497 1495 1504 1501 1499 1503 1504 1503 1503 1503 1503 1503 1503 1503 1503 1504 1505 1505 1506 1506 1507 1507 1508 1508 1508 1508 1509 1509 1510 1510 1510 1510 1511 1510 1511 1511 1511 1512 1512 1512 1512 1512 1512 1512 1513
1514 1512 1514 1511 1507 1506 1499 1501 1502 1503 1503 1503 1503 1502 1502 1502 1502 1502 1502 1503 1503 1504 1504 1504 1505 1506 1506 1506 1506 1506 1507 1508 1508 1508 1508 1509 1509 1509 1509 1509 1509 1510 1510 1510 1510 1510 1510 1510 1510
1517 1516 1514 1510 1505 1497 1495 1497 1498 1500 1501 1503 1503 1502 1502 1502 1501 1501 1500 1501 1501 1502 1502 1503 1503 1504 1504 1504 1504 1504 1505 1505 1506 1506 1506 1507 1507 1507 1507 1507 1507 1507 1507 1507 1508 1508 1507 1507 1507
1519 1518 1515 1511 1509 1499 1494 1496 1501 1503 1504 1504 1504 1504 1503 1502 1501 1500 1499 1499 1500 1500 1501 1501 1501 1501 1502 1501 1502 1502 1502 1503 1503 1504 1504 1504 1504 1505 1505 1504 1505 1505 1505 1505 1505 1505 1505 1505 1504
1519 1517 1516 1511 1511 1508 1499 1503 1504 1505 1505 1505 1504 1503 1502 1501 1500 1499 1498 1498 1498 1499 1499 1499 1499 1499 1499 1499 1499 1500 1500 1500 1501 1501 1502 1502 1502 1502 1502 1502 1502 1502 1502 1502 1502 1502 1502 1502 1502